Location: Lake Almanor
(40.2485°N, 121.1442°W)
Time: 01:45:55
(UTC-08:00)

STARLINK-1117 - Pass Details

Date: 31 January 2020
Orbit: 348 x 351 km, 53.0° (Epoch: 18 February)

Event Time Altitude Azimuth Distance (km) Brightness Sun altitude
Rises 19:45:12 0° 296° (WNW) 2,172 7.7 -27.5°
Reaches altitude 10° 19:47:34 10° 277° (W) 1,324 6.5 -28.0°
Enters shadow 19:48:11 13° 268° (W) 1,148 6.1 -28.1°
